Location: Unspecified
(0.0000°N, 0.0000°E)
Time: 11:37:24
(UTC+01:00)

Cosmos 1908 Rocket - Visible Passes

Search period start: 31 October 2014 00:00
Search period end: 10 November 2014 00:00
Orbit: 608 x 633 km, 82.5° (Epoch: 30 October)

Date Brightness Start Highest point End Pass type
(mag) Time Alt. Az. Time Alt. Az. Time Alt. Az.
02 Nov 6.9 05:23:21 10° ESE 05:25:23 13° E 05:27:24 10° ENE visible
02 Nov 6.8 19:09:20 10° WNW 19:11:55 16° W 19:14:30 10° SW visible
03 Nov 5.8 05:39:22 10° SSE 05:43:14 29° E 05:47:06 10° NNE visible
04 Nov 3.9 05:56:40 10° S 06:01:06 70° E 06:05:31 10° N visible
05 Nov 3.8 06:14:40 10° SSW 06:18:57 48° W 06:23:14 10° NNW visible
06 Nov 6.7 04:56:39 10° SE 04:59:12 15° E 05:01:44 10° ENE visible
07 Nov 5.3 05:13:01 10° SSE 05:17:03 34° E 05:21:05 10° NNE visible
08 Nov 3.6 05:30:27 10° S 05:34:54 82° E 05:39:22 10° N visible
09 Nov 4.0 05:48:33 10° SSW 05:52:46 41° W 05:56:58 10° NNW visible
